Lapse_Rate
0.5 0.8 1.7 5.0 6.5 6.5 6.5 6.5 6.5 6.5 6.5 7.2 7.3 7.0 6.6 7.1 6.5 6.5 6.3 4.0 3.6 4.2 4.2 4.0 2.7 2.9 2.9 3.1 3.2 3.5 3.7 3.9 3.9 3.7 3.6 3.5 3.4 3.5 3.7 3.9 4.2 4.5 4.9 5.0 4.8 4.9 5.0 4.8 4.4
1.0 2.6 3.8 4.9 6.5 6.5 6.5 6.5 6.5 6.5 6.9 6.1 6.9 7.2 7.0 6.5 7.2 7.4 6.8 5.0 4.4 4.4 4.4 4.4 3.0 3.1 3.2 3.3 3.3 3.4 3.7 4.1 4.4 4.2 4.0 3.8 3.7 3.7 3.8 3.9 4.2 4.4 4.8 4.9 4.9 4.8 4.7 4.2 4.2
2.2 2.4 6.6 6.5 6.5 6.5 6.5 6.5 6.5 6.8 6.5 7.0 7.0 7.2 7.3 7.1 7.1 6.5 6.8 5.9 4.9 4.3 4.0 2.8 2.7 3.2 3.6 3.9 4.1 4.1 4.1 4.1 4.4 4.5 4.4 4.2 4.1 3.9 3.8 4.0 4.2 4.4 4.8 5.0 5.0 4.8 4.3 4.0 4.2
4.1 5.5 5.9 6.5 6.5 6.5 6.5 6.5 6.7 6.7 7.1 7.1 7.4 6.7 6.7 5.8 5.5 3.9 4.6 4.1 3.2 2.7 3.1 2.6 3.0 3.3 4.0 4.5 4.7 4.6 4.6 4.5 4.5 4.6 4.8 4.8 4.6 4.4 4.1 4.1 4.3 4.6 5.0 5.0 4.8 4.4 4.1 4.0 4.1
2.9 5.1 6.5 6.5 6.5 6.5 6.5 6.9 7.0 6.5 6.9 7.0 7.0 6.7 7.3 6.4 4.1 4.0 3.0 2.7 2.0 1.7 1.7 2.1 1.9 2.8 3.6 3.5 3.5 4.0 4.4 4.6 4.7 4.7 4.7 4.8 4.8 4.9 4.6 4.4 4.5 4.7 4.9 4.9 4.6 4.2 4.0 3.8 3.9
6.5 6.5 6.5 6.5 6.5 6.5 6.6 6.9 7.0 6.9 7.1 7.1 7.1 7.0 7.4 5.6 4.1 2.6 2.8 1.5 0.8 1.3 1.1 1.1 1.4 2.0 2.4 2.7 3.6 3.8 3.6 4.0 4.5 4.6 4.8 4.9 4.9 4.8 4.7 4.7 4.8 4.8 4.8 4.7 4.4 4.1 3.9 3.6 3.8
6.6 6.5 6.5 6.5 6.5 6.5 6.5 6.4 6.8 6.8 6.9 6.9 7.0 6.5 7.6 6.3 4.5 3.6 2.4 1.8 0.5 -0.2 -0.0 0.1 0.3 1.5 2.7 2.7 2.9 3.3 3.8 4.0 4.0 4.1 4.3 4.5 4.6 4.8 4.7 4.6 4.6 4.9 5.0 4.7 4.4 4.1 3.9 3.5 3.7
5.3 6.6 6.5 6.5 6.5 6.5 6.7 7.0 6.4 7.1 6.8 5.8 4.5 6.6 6.9 6.8 5.7 4.7 3.2 1.8 0.7 -0.2 -0.9 -0.7 0.7 1.3 2.2 3.1 2.4 2.5 2.3 2.9 3.6 4.0 4.2 4.2 4.1 4.6 4.9 4.7 4.8 4.6 4.7 4.8 4.7 4.5 4.0 3.7 3.6
4.4 6.5 6.5 6.5 6.5 6.5 6.9 6.6 6.8 5.5 5.8 5.5 5.6 6.4 6.4 6.0 4.9 4.3 3.4 1.9 1.5 0.6 -0.3 -0.7 -0.5 -0.3 0.7 1.8 1.6 2.3 2.1 1.7 2.8 3.7 3.8 5.0 4.7 4.3 5.3 6.0 5.1 4.7 4.6 4.5 4.3 4.4 4.4 4.0 3.7
6.7 6.5 6.5 6.6 6.6 6.5 6.8 6.7 7.1 6.9 7.0 7.2 7.5 6.8 5.8 4.7 3.1 1.8 1.3 1.0 0.5 -0.0 -0.1 -0.8 -1.2 -1.3 -0.4 0.6 0.1 0.7 1.0 1.4 1.7 1.5 1.6 3.1 3.9 4.4 4.5 4.4 4.4 4.9 5.6 5.1 4.4 4.0 4.1 4.1 6.0
6.8 6.5 6.5 6.7 7.0 6.9 6.8 6.8 6.9 6.9 6.5 7.2 7.3 6.1 4.1 2.9 2.2 1.5 1.1 0.6 0.2 0.0 -0.5 -1.3 -2.1 -2.4 -2.3 -1.8 -1.2 -0.8 0.1 0.2 0.4 0.9 0.4 0.6 1.3 1.1 3.0 4.4 4.6 5.3 5.9 6.8 6.3 5.5 5.2 6.2 6.3
6.5 6.8 6.9 6.9 6.2 6.7 6.7 7.2 7.0 7.1 7.1 7.4 5.8 4.5 3.9 2.8 2.2 2.3 1.6 1.0 0.6 -0.1 -0.6 -1.2 -2.3 -2.6 -2.7 -2.0 -1.8 -1.3 -0.6 -0.7 -0.5 -0.1 0.1 -0.2 1.1 1.1 0.6 0.9 2.0 4.0 5.2 6.1 6.4 6.3 5.2 5.1 5.9
6.5 6.6 6.7 6.1 5.5 6.3 6.1 6.8 6.9 7.2 7.7 6.1 5.3 4.4 3.1 2.8 2.5 1.4 0.9 1.0 0.7 -0.1 -0.5 -0.9 -1.4 -2.1 -2.3 -1.9 -1.5 -1.6 -1.7 -1.8 -1.6 -1.0 -1.1 -1.1 -0.2 0.7 1.0 1.3 1.7 2.1 2.3 4.4 5.7 6.3 6.5 5.2 5.9
6.6 6.8 6.8 6.2 6.7 6.4 6.7 6.9 6.8 7.4 7.9 6.9 4.9 3.9 3.3 2.8 2.4 2.1 1.7 1.3 1.0 0.8 0.0 -0.2 -0.5 -1.7 -2.0 -1.7 -1.8 -1.7 -1.5 -1.5 -1.4 -1.6 -1.9 -1.6 -0.8 -0.5 0.2 1.0 1.8 2.1 1.8 1.6 2.1 4.8 6.4 5.8 5.5
6.9 6.5 6.5 6.7 6.9 6.6 7.1 6.5 6.5 7.6 7.9 7.5 7.1 6.4 5.0 3.9 3.4 2.2 2.0 1.6 1.2 1.1 0.4 -0.4 -0.1 -1.5 -1.8 -1.8 -1.6 -1.1 -1.6 -1.5 -1.3 -1.4 -2.1 -1.8 -1.5 -1.0 -0.4 0.8 1.8 1.6 1.4 2.1 2.5 3.0 4.7 5.8 5.4
6.5 6.5 6.5 6.5 6.7 6.6 6.7 6.5 6.7 7.8 7.6 7.4 7.5 6.8 4.8 3.9 3.4 3.2 2.7 2.5 2.2 1.7 0.8 0.5 -0.4 -1.0 -1.4 -1.9 -1.7 -1.2 -1.4 -1.1 -1.3 -1.6 -1.7 -1.9 -1.5 -1.3 -0.5 0.8 1.2 0.4 1.2 2.4 3.4 3.0 3.2 3.5 5.3
6.5 6.5 6.5 6.5 6.7 6.5 6.5 6.5 6.9 7.7 7.5 7.3 7.5 7.5 7.1 5.5 4.7 3.8 3.3 2.6 1.9 0.9 0.4 -0.2 -0.6 -1.3 -1.5 -1.4 -1.2 -1.0 -1.4 -1.1 -1.2 -1.0 -1.1 -1.8 -2.1 -1.6 -0.4 0.8 0.5 0.7 0.8 1.4 2.2 2.7 2.6 3.3 3.9
6.5 6.5 6.5 6.5 6.5 6.5 6.5 6.5 6.6 7.4 7.4 7.3 7.5 7.6 7.6 6.2 4.9 4.0 3.3 2.4 1.9 0.8 0.3 -0.3 -0.7 -1.6 -2.0 -1.6 -0.8 0.1 0.5 -0.0 -0.1 -0.1 -0.5 -1.0 -1.0 -1.0 -0.6 -0.0 0.5 1.0 1.1 1.0 1.7 2.2 2.4 2.8 3.5
6.5 6.5 6.5 6.5 6.5 6.5 6.5 6.5 6.5 7.1 7.3 7.3 7.5 7.6 7.7 7.1 5.7 4.8 3.8 3.1 2.7 1.6 1.2 -0.1 -0.4 -1.1 -0.9 -1.0 -1.3 -0.5 -0.2 0.8 1.4 0.6 -0.1 0.0 0.1 0.1 0.2 -0.4 -0.2 1.0 2.4 1.8 1.3 1.1 1.3 1.9 3.8
6.5 6.5 6.5 6.5 6.5 6.5 6.5 6.5 6.5 6.9 7.0 7.4 7.4 7.5 7.6 7.1 6.3 5.4 4.5 3.4 2.3 1.9 1.4 1.3 1.5 1.2 1.0 1.1 1.0 0.8 1.0 1.4 1.3 0.9 1.0 1.1 1.0 0.8 1.3 0.7 1.1 1.2 1.3 1.2 1.9 1.3 1.8 3.5 4.8
6.5 6.5 6.5 6.5 6.5 6.5 6.5 6.5 6.5 6.6 7.1 7.4 7.6 7.7 7.7 7.3 6.6 5.5 4.6 3.5 3.0 2.3 1.6 1.6 1.4 1.3 1.2 0.8 1.6 1.7 2.0 2.4 2.7 2.1 2.3 2.0 1.8 1.6 1.6 1.5 1.2 1.2 1.4 1.5 1.8 3.0 3.7 6.9 6.8
6.5 6.5 6.5 6.5 6.5 6.5 6.5 6.5 6.5 6.5 6.5 6.8 7.2 7.4 7.6 6.9 6.2 5.7 5.0 4.3 3.5 2.7 2.3 2.3 1.9 1.9 1.7 1.0 1.7 1.5 1.9 1.8 1.9 1.8 1.8 1.6 1.6 1.6 1.8 1.4 1.5 1.6 2.0 2.6 3.3 4.0 5.6 7.3 6.9
6.5 6.5 6.5 6.5 6.5 6.5 6.5 6.5 6.5 6.5 6.5 6.5 7.0 7.4 7.5 6.7 6.4 5.8 5.2 4.5 3.8 3.1 2.8 2.5 2.6 2.3 2.1 2.1 2.1 2.6 2.7 2.9 2.9 3.3 2.3 1.8 1.5 1.9 2.1 2.0 2.2 2.5 2.9 3.6 4.7 5.0 5.7 7.2 7.4
6.5 6.5 6.5 6.5 6.5 6.5 6.5 6.5 6.5 6.5 6.5 6.5 7.0 7.4 7.4 6.7 6.1 5.8 5.1 4.5 4.5 3.6 3.3 3.2 3.3 3.4 2.9 2.9 3.1 3.2 3.2 3.2 3.6 4.2 4.6 4.3 4.5 4.3 3.3 2.9 2.8 2.9 3.5 4.2 5.7 6.5 6.4 7.0 7.0
6.5 6.5 6.5 6.5 6.5 6.5 6.5 6.5 6.5 6.5 6.5 6.6 6.7 7.2 7.5 6.7 6.2 5.8 5.6 5.6 4.7 4.3 3.9 4.1 3.9 3.8 3.2 3.1 3.1 2.9 3.2 3.7 4.0 4.2 4.8 4.7 5.1 5.5 5.6 4.4 3.6 4.0 4.3 5.5 7.0 6.9 6.2 6.5 6.5
6.5 6.5 6.5 6.5 6.5 6.5 6.5 6.5 6.5 6.5 6.9 7.2 7.4 7.5 7.3 6.4 6.2 6.0 5.8 5.4 4.9 4.5 4.3 4.0 3.7 3.7 3.4 3.4 3.3 3.8 3.9 4.5 4.6 4.9 5.2 5.6 5.9 6.8 6.1 6.0 6.5 6.4 6.2 7.3 7.0 6.8 7.6 6.8 6.3
6.5 6.5 6.5 6.5 6.5 6.5 6.5 6.5 6.5 6.5 6.5 6.9 7.1 7.2 7.3 7.4 6.3 6.0 5.5 5.1 5.1 5.0 4.3 3.8 4.3 4.8 4.6 4.4 4.4 4.5 4.7 4.2 4.4 4.7 5.7 6.7 6.0 7.3 6.3 6.9 7.1 7.0 7.6 7.6 7.5 6.5 5.6 5.6 5.7
6.5 6.5 6.5 6.5 6.5 6.5 6.5 6.5 6.5 6.5 6.5 6.5 6.7 7.0 7.3 7.1 6.2 5.8 5.6 5.3 5.1 4.8 4.8 4.7 4.9 4.6 4.5 4.8 4.8 4.7 4.2 4.0 4.5 5.4 6.5 6.6 5.9 6.5 6.7 7.6 7.6 8.0 8.0 7.9 8.3 7.7 6.7 7.6 6.0
6.5 6.5 6.5 6.5 6.5 6.5 6.5 6.5 6.5 6.5 6.5 6.5 6.8 7.2 7.3 7.1 6.2 5.6 5.4 5.2 5.0 5.1 5.1 4.7 4.8 4.8 4.9 4.8 4.5 4.3 4.1 4.5 5.5 6.0 5.9 6.4 6.0 7.0 7.7 7.9 8.1 8.5 8.9 8.5 8.0 8.3 8.9 8.4 7.4
6.5 6.5 6.5 6.5 6.5 6.5 6.5 6.5 6.5 6.5 6.6 6.9 7.0 7.2 7.4 6.5 5.8 5.7 5.2 5.1 5.4 5.2 4.9 4.7 4.8 4.9 4.8 4.6 4.5 4.2 4.3 5.1 5.9 6.1 6.6 7.1 7.0 6.7 7.4 7.6 8.2 8.9 8.9 8.8 8.0 8.2 8.9 8.7 7.8
Wind_Speed
4 3 1 1 1 3 3 3 3 3 3 4 6 14 17 9 7 6 6 14 10 11 9 9 10 9 9 8 10 10 9 8 8 10 11 12 12 12 12 12 10 10 9 9 8 7 8 9 9
3 0 1 2 3 5 3 2 6 4 8 4 9 8 12 10 9 6 8 13 13 12 11 11 9 7 7 6 8 9 9 8 6 7 8 9 10 10 10 10 11 10 9 9 8 8 8 9 9
0 3 2 3 3 3 4 2 3 3 0 1 5 7 5 8 10 4 10 8 14 15 15 18 18 13 10 9 7 6 5 6 5 5 5 5 6 8 8 8 8 8 8 8 7 6 7 8 9
2 2 3 4 7 3 1 4 3 3 5 9 10 11 9 10 6 11 13 13 15 16 18 22 20 20 17 13 11 10 7 5 3 3 1 1 2 4 6 6 6 6 6 6 6 6 6 7 8
3 2 4 4 2 1 3 4 3 4 5 3 2 7 5 7 9 12 14 14 15 15 18 19 20 18 18 16 16 13 10 9 7 5 2 1 2 3 3 4 5 5 4 6 4 5 5 6 8
3 1 4 4 2 2 2 5 3 12 11 8 8 6 4 7 11 11 13 16 18 14 18 19 19 20 19 19 16 14 13 11 10 10 9 6 5 4 5 5 4 4 4 4 5 6 7 7 8
3 2 4 5 3 2 3 5 4 4 6 8 3 5 5 11 9 10 14 15 20 21 21 20 19 19 18 21 18 16 14 12 11 10 10 10 9 8 7 7 7 7 6 7 7 7 7 8 9
3 3 4 2 4 4 1 2 2 5 6 4 7 5 4 4 6 9 13 16 17 19 21 20 19 18 17 16 22 20 20 17 13 11 10 10 11 10 10 9 9 8 8 8 10 9 8 9 10
2 2 4 5 6 3 1 4 4 5 8 7 6 6 7 7 8 10 14 18 15 15 17 20 21 21 19 17 18 17 19 19 18 16 14 10 9 10 14 11 10 11 10 10 10 12 11 11 12
2 1 6 4 2 1 1 2 7 4 5 7 12 12 12 12 13 16 16 15 17 18 16 17 19 20 17 16 17 17 18 17 17 18 19 14 11 9 11 15 18 18 15 14 13 13 13 13 12
2 2 3 1 2 2 2 2 4 7 4 2 12 12 11 14 15 16 16 14 13 13 12 15 17 18 17 15 14 14 14 15 15 18 19 17 15 17 14 10 10 12 14 15 11 12 13 14 13
1 1 1 2 3 2 3 5 6 9 5 12 14 12 13 15 14 13 14 13 13 13 15 15 19 17 18 14 15 14 14 14 14 16 20 16 12 12 11 9 14 12 11 14 14 12 13 15 16
1 1 2 5 5 2 6 5 9 10 12 14 15 15 15 13 12 12 12 12 11 13 13 14 18 17 17 16 14 14 14 15 14 16 20 19 15 10 13 11 12 11 16 13 11 12 11 11 16
1 2 4 5 4 3 10 7 3 6 11 13 14 14 13 12 11 11 13 13 13 13 14 13 14 17 15 13 13 12 13 14 15 16 19 19 17 16 14 11 11 12 13 14 12 11 9 8 10
0 3 4 6 3 3 9 5 4 16 13 13 13 12 12 13 13 13 12 13 12 11 12 13 13 17 15 13 13 11 13 13 14 14 17 18 18 18 16 11 9 14 17 15 13 11 12 9 8
1 1 2 3 3 1 10 4 9 11 14 12 12 11 11 11 12 11 11 11 11 11 13 12 14 16 15 14 12 11 12 12 12 13 15 18 18 19 16 10 10 18 16 14 9 8 9 10 9
3 3 4 2 2 3 4 3 11 9 11 12 11 10 10 11 10 9 9 9 10 11 11 13 13 15 14 14 11 10 10 11 12 13 14 16 17 18 16 13 15 18 13 9 10 11 8 9 10
5 4 3 3 1 4 5 6 12 10 11 12 11 10 10 10 8 7 7 7 8 9 10 11 10 13 14 13 11 10 9 12 13 13 15 16 17 17 16 14 16 16 9 10 11 13 11 11 10
4 2 3 2 1 1 3 10 12 9 11 11 11 11 10 9 7 6 6 6 7 9 11 13 15 15 12 11 10 9 10 9 9 15 18 18 18 18 18 14 14 15 10 12 12 12 13 12 12
3 3 4 2 2 2 6 6 6 9 11 13 13 11 11 9 8 6 5 6 8 10 11 12 12 12 11 8 8 4 8 6 8 14 14 15 17 18 16 15 11 14 11 13 12 11 11 10 9
4 6 4 3 1 2 7 4 8 9 9 11 11 11 10 11 9 6 5 6 6 8 8 9 10 11 11 12 8 8 5 8 7 9 8 15 15 16 15 16 15 13 9 10 11 12 14 11 11
6 9 5 5 3 4 3 5 7 10 13 14 13 12 11 9 7 5 4 4 5 6 6 8 9 10 10 13 10 12 8 9 9 9 10 14 18 17 17 18 17 14 10 11 10 11 12 11 11
5 4 5 2 3 0 3 5 3 8 13 18 16 13 11 10 8 7 5 3 4 6 7 7 10 10 10 11 11 9 9 7 7 8 11 11 16 17 18 18 18 13 9 11 12 13 13 10 10
11 6 6 4 1 6 11 10 5 7 9 14 15 14 14 12 9 7 5 3 3 3 5 5 8 8 9 9 11 11 11 11 9 10 9 8 8 9 15 19 17 17 11 11 11 12 15 12 10
4 7 2 3 4 7 2 6 9 6 9 14 22 19 15 12 10 9 7 4 2 3 5 4 7 9 9 10 11 12 12 11 11 11 10 12 10 10 12 16 14 12 14 14 12 10 12 12 12
9 8 6 7 6 2 2 7 2 1 2 7 15 16 14 12 10 10 8 5 3 2 4 5 8 10 10 10 12 11 12 8 8 10 9 9 9 10 16 14 16 17 17 15 9 9 11 13 12
6 8 3 5 2 2 4 4 4 4 4 9 15 15 15 13 12 11 9 6 4 2 4 5 7 8 8 9 11 12 11 11 10 12 11 9 11 11 13 15 13 15 15 12 13 10 13 14 13
5 11 4 1 6 7 4 6 8 8 12 11 16 18 16 13 12 11 9 7 4 2 2 2 5 7 7 9 10 10 12 11 11 10 11 12 12 13 14 14 15 14 13 13 13 12 15 16 13
5 5 1 3 3 4 3 7 5 9 15 18 19 18 17 15 13 11 9 6 4 2 0 1 4 6 7 9 11 12 11 12 11 10 12 13 13 13 14 15 15 14 16 15 14 14 18 19 18
3 6 6 4 5 1 2 10 2 4 14 17 18 18 15 14 12 11 8 6 3 1 0 2 4 4 7 9 11 11 11 11 11 12 13 13 13 13 14 15 15 15 16 15 15 16 18 18 18
Wind_Direction
345 2 333 37 136 61 61 55 288 348 84 30 72 84 88 70 48 76 60 17 48 81 84 81 87 95 104 113 118 118 110 113 121 128 130 135 136 139 138 139 138 141 136 133 125 122 113 117 120
341 270 65 83 69 94 73 320 27 65 119 143 72 84 67 68 22 68 34 21 46 55 51 52 61 80 93 110 119 120 117 121 125 127 135 141 143 144 146 144 146 143 139 137 137 134 129 129 136
161 29 19 65 93 102 124 154 336 63 81 72 96 47 43 353 7 39 20 43 57 49 48 40 37 42 40 36 38 60 96 112 118 128 139 149 153 156 155 152 154 150 149 148 149 143 133 142 154
19 40 73 63 86 60 254 324 209 157 80 63 104 82 88 47 3 14 23 39 54 46 48 46 48 44 42 41 39 36 28 43 66 89 97 172 182 172 167 165 168 169 161 157 158 152 157 160 172
37 50 67 94 55 301 300 322 212 139 85 112 112 106 79 19 19 33 45 49 50 46 38 39 40 51 54 49 44 38 31 19 4 355 339 282 257 259 227 198 187 185 192 179 177 177 184 184 194
69 70 97 118 109 335 338 356 63 88 97 85 83 91 79 24 30 36 53 57 51 47 40 35 31 34 44 45 44 49 45 31 15 358 340 315 293 272 265 268 257 222 214 210 214 205 205 199 209
90 74 140 150 115 62 10 342 37 60 84 35 15 79 97 46 38 50 61 59 52 45 40 32 29 26 29 35 41 41 40 44 34 16 352 332 314 296 283 269 265 268 258 243 238 231 225 216 216
94 90 133 193 160 121 32 90 129 56 67 4 350 107 113 46 35 61 60 59 52 42 37 30 29 29 28 28 25 29 29 26 26 20 11 349 322 298 281 278 271 270 264 256 250 252 240 233 223
131 88 156 178 170 149 161 124 39 67 86 55 31 68 91 66 55 65 54 48 42 38 34 28 25 23 25 31 23 23 29 26 21 16 8 350 340 322 311 293 267 266 264 254 246 257 254 242 240
83 163 186 182 198 161 89 77 132 111 99 74 87 82 75 67 60 60 52 47 38 31 28 25 25 23 24 28 26 25 23 27 24 17 13 11 350 327 319 313 303 286 257 251 249 248 256 256 248
132 183 175 208 252 230 133 98 57 126 81 145 138 111 80 72 62 60 57 50 42 36 33 27 24 23 25 30 30 32 30 24 22 21 17 9 12 8 359 325 319 310 297 268 250 246 245 246 248
179 187 209 322 347 176 180 102 70 41 82 109 112 106 92 74 67 63 59 48 37 32 27 24 25 24 27 28 35 33 34 28 26 23 22 12 8 4 360 346 348 327 305 295 273 251 247 252 246
195 354 305 301 305 228 72 49 112 100 113 110 106 94 87 85 79 67 63 55 45 38 26 23 21 22 19 24 24 33 31 31 28 30 22 17 9 3 354 348 342 337 348 330 298 270 258 253 255
188 259 267 284 257 208 131 153 91 152 132 109 100 94 90 82 73 67 53 45 38 30 23 18 22 18 18 23 23 28 28 27 29 29 21 19 13 2 352 345 346 343 344 328 322 307 263 251 253
125 293 297 225 232 245 128 128 40 140 137 117 102 93 80 70 61 56 50 46 32 29 22 19 15 14 15 16 20 24 26 26 28 24 21 19 16 1 351 347 349 344 334 328 328 322 314 248 252
23 85 270 139 177 293 193 214 144 147 139 125 118 110 100 82 72 60 50 45 33 26 22 20 16 14 12 14 15 19 24 25 24 21 16 14 10 4 352 349 349 342 336 335 332 332 323 322 261
6 248 211 279 101 133 207 139 163 163 153 140 134 124 109 95 78 66 58 48 37 30 24 21 17 14 6 6 12 20 28 25 22 16 12 11 10 2 353 350 346 343 342 341 337 329 325 312 306
203 221 244 239 37 138 116 123 158 174 165 154 148 139 126 115 105 94 73 58 46 36 31 27 25 17 10 9 7 15 21 18 16 11 8 7 4 360 355 351 349 348 341 339 334 332 324 315 307
136 189 232 250 40 166 154 151 172 162 169 169 165 156 142 130 126 105 79 58 49 41 34 28 24 18 16 13 4 4 4 358 2 3 1 0 357 359 356 357 347 345 338 334 330 327 325 325 324
196 210 228 279 340 162 167 155 175 185 191 187 176 170 162 153 153 136 101 65 47 41 34 30 27 23 23 18 12 355 334 342 341 349 350 353 354 356 355 352 342 342 335 332 327 327 319 316 327
212 212 195 218 331 96 154 180 190 201 197 195 193 182 179 172 159 149 108 63 48 43 35 33 30 27 26 17 11 7 6 347 351 345 346 347 352 353 354 350 341 335 333 326 321 320 314 311 313
216 199 182 166 166 245 329 274 201 196 197 202 195 193 187 180 170 151 127 89 55 45 44 39 33 30 26 20 15 13 6 353 344 339 340 342 347 347 350 346 340 334 325 322 317 315 307 302 300
222 129 139 105 122 338 190 263 126 169 212 208 198 196 192 187 181 169 157 112 65 41 34 30 26 28 22 18 15 7 359 350 338 336 337 336 336 337 339 339 334 332 324 314 311 305 297 291 291
147 91 61 63 101 253 208 209 204 185 221 193 194 199 194 190 184 175 166 154 73 43 33 32 21 22 14 11 9 5 356 344 337 340 338 335 329 331 334 334 331 328 323 316 309 300 290 299 307
178 138 194 222 199 245 40 215 271 203 213 196 190 193 191 186 184 184 183 183 159 69 42 31 19 17 10 7 3 360 353 339 333 335 334 332 335 334 333 335 328 327 319 314 304 317 323 312 301
195 191 184 209 213 250 135 232 244 202 231 198 191 183 178 184 188 186 184 179 140 88 45 26 15 8 5 1 357 352 347 340 333 333 328 324 320 325 328 327 326 325 321 315 340 326 317 313 305
179 213 161 108 64 271 217 247 212 163 156 164 175 174 182 186 185 183 174 171 164 98 43 22 6 0 3 357 350 346 342 341 338 335 329 326 326 326 330 327 327 327 326 320 332 322 315 316 307
186 145 143 169 202 230 219 262 244 201 196 181 181 185 187 185 182 178 175 172 145 112 50 23 4 1 358 351 349 345 342 344 338 332 328 330 335 333 334 331 328 328 329 329 330 321 318 319 317
151 185 97 139 181 223 275 260 216 213 187 190 192 191 188 187 183 176 172 157 136 117 177 22 10 0 359 352 349 345 344 340 333 329 336 338 336 336 337 337 331 332 331 333 321 326 324 323 322
179 181 173 175 191 234 232 259 160 210 196 194 195 195 190 184 175 170 159 151 144 167 120 37 9 12 2 351 344 345 342 337 334 337 339 340 337 340 342 339 336 334 335 333 331 330 329 326 325